705  
NZUS59 KLOT 251309  
HRRLOT  
 
CHICAGO AREA WEATHER ROUNDUP  
NATIONAL WEATHER SERVICE CHICAGO/ROMEOVILLE IL  
800 AM CDT MON SEP 25 2017  
 
NOTE: "FAIR" INDICATES FEW OR NO CLOUDS BELOW 12,000 FEET WITH NO  
SIGNIFICANT WEATHER AND/OR OBSTRUCTIONS TO VISIBILITY.  
 
* THESE STATIONS ARE NOT UNDER NWS QUALITY CONTROL. THEY ALSO MAY NOT  
REPORT WEATHER SUCH AS PRECIPITATION OR FOG.  
 
ILZ005-006-012>014-019>023-251400-  
NORTHEAST ILLINOIS  
 
CITY SKY/WX TMP DP RH WIND PRES REMARKS  
OHARE MOSUNNY 72 58 61 SW5 30.01S  
MIDWAY MOSUNNY 74 58 57 S5 30.02R  
AURORA SUNNY 67 62 84 CALM 30.02S  
LANSING* SUNNY 68 61 78 S3 30.03S  
JOLIET* SUNNY 70 63 79 CALM 30.02S  
WAUKEGAN SUNNY 71 62 73 SW3 30.01S  
DUPAGE AIRPORT SUNNY 66 61 84 CALM 30.01S  
WHEELING SUNNY 71 63 75 CALM 30.03R  
MORRIS* SUNNY 67 60 79 CALM 30.01S  
LEWIS AIRPORT* SUNNY 68 60 75 S5 30.03R  
NORTHERLY ISL N/A 74 61 63 SE2 N/A  

 
 
WIZ051-052-058>065-066-070>072-251400-  
SOUTHEAST WISCONSIN  
 
CITY SKY/WX TMP DP RH WIND PRES REMARKS  
MILWAUKEE MOSUNNY 73 61 65 SW8 30.01R  
KENOSHA* SUNNY 68 62 81 CALM 30.01S  
RACINE* SUNNY 71 63 75 S3 30.03R  
WAUKESHA MOSUNNY 66 57 72 CALM 30.02S  
WEST BEND N/A 61 61 100 CALM 30.02R  

 
 
INZ001>003-010>013-019-020-251400-  
NORTHWEST INDIANA  
 
CITY SKY/WX TMP DP RH WIND PRES REMARKS  
GARY* MOSUNNY 70 57 64 S3 30.04R  
MICHIGAN CITY* NOT AVBL  
RENSSELAER* NOT AVBL  
VALPARAISO SUNNY 67 60 78 CALM 30.05S  

 
 
LMZ740>746-251400-  
SOUTHERN LAKE MICHIGAN  
 
STATION/POSITION TIME SKY/WX TEMP WIND PRES VSBY  
AIR DIR/SP/G  
(UTC) (F) (DEG/KT/KT) (MB) (MI)  
HARRISON CRIB 1240 73 160/ 10/ 12 N/A  
BURNHAM HARBOR 1300 75 N/A  
CALUMET HARBOR 1248 71 180/ 5/ 6 1016.0S  
BURNS HARBOR 1240 72 170/ 7/ 12 1017.3S  
MICHIGAN CITY 1240 70 130/ 9/ 10 N/A  

 
 
ABBREVIATIONS USED IN REMARKS  
TC - TEMPERATURE IN CELSIUS  
WCI - WIND CHILL INDEX  
HX - HEAT INDEX  
VSB - VISIBILITY  

 
 
 
CLICK HERE TO GO TO PREVIOUS BULLETINS.

The Nexlab IL Page
The Nexlab IN Page Main Text Page